SNJ49 ROAH-ROIG

Flight info

Callsign SNJ49
Flight time 0h 44m
Altitude 30000
Route GANJU Y576 DIANA
Aircraft B738/M-SDE2E3FGHIRWXY/LB1

Departure

Time 2026-04-19 18:16
Airport Naha International Airport (ROAH)

Arrival

Time 2026-04-19 19:00
Airport New Ishigaki Airport (ROIG)
Time Latitude Longitude Altitude Speed Heading
2026-04-19 17:46 26.20298 127.64909 27 ft 0 kts 178°
2026-04-19 18:06 26.20297 127.64909 27 ft 1 kts 179°
2026-04-19 18:07 26.20296 127.64886 27 ft 3 kts 340°
2026-04-19 18:07 26.20324 127.64893 27 ft 6 kts 14°
2026-04-19 18:07 26.20352 127.64864 27 ft 6 kts 278°
2026-04-19 18:08 26.20350 127.64814 27 ft 7 kts 261°
2026-04-19 18:08 26.20325 127.64771 27 ft 7 kts 210°
2026-04-19 18:08 26.20276 127.64761 27 ft 8 kts 179°
2026-04-19 18:08 26.20239 127.64762 27 ft 8 kts 178°
2026-04-19 18:09 26.20154 127.64766 27 ft 10 kts 178°
2026-04-19 18:09 26.20109 127.64768 27 ft 10 kts 177°
2026-04-19 18:09 26.20012 127.64773 27 ft 11 kts 177°
2026-04-19 18:09 26.19932 127.64778 27 ft 12 kts 177°
2026-04-19 18:10 26.19844 127.64783 27 ft 13 kts 178°
2026-04-19 18:10 26.19749 127.64787 27 ft 15 kts 178°
2026-04-19 18:10 26.19677 127.64790 27 ft 16 kts 178°
2026-04-19 18:10 26.19563 127.64794 27 ft 17 kts 178°
2026-04-19 18:11 26.19446 127.64800 27 ft 17 kts 177°
2026-04-19 18:11 26.19333 127.64806 28 ft 16 kts 177°
2026-04-19 18:11 26.19225 127.64812 28 ft 15 kts 178°
2026-04-19 18:11 26.19121 127.64816 28 ft 15 kts 178°
2026-04-19 18:12 26.19022 127.64819 28 ft 14 kts 178°
2026-04-19 18:12 26.18927 127.64823 28 ft 13 kts 176°
2026-04-19 18:12 26.18835 127.64830 28 ft 13 kts 176°
2026-04-19 18:12 26.18747 127.64833 28 ft 13 kts 179°
2026-04-19 18:13 26.18660 127.64836 28 ft 12 kts 177°
2026-04-19 18:13 26.18576 127.64841 28 ft 12 kts 176°
2026-04-19 18:13 26.18494 127.64845 28 ft 12 kts 178°
2026-04-19 18:13 26.18409 127.64848 28 ft 12 kts 178°
2026-04-19 18:14 26.18323 127.64851 28 ft 12 kts 178°
2026-04-19 18:14 26.18251 127.64821 28 ft 12 kts 241°
2026-04-19 18:14 26.18240 127.64731 29 ft 12 kts 268°
2026-04-19 18:14 26.18263 127.64653 27 ft 10 kts 334°
2026-04-19 18:15 26.18334 127.64644 25 ft 13 kts 357°
2026-04-19 18:15 26.18630 127.64631 26 ft 79 kts 357°
2026-04-19 18:15 26.19411 127.64593 27 ft 143 kts 358°
2026-04-19 18:15 26.20500 127.64521 454 ft 162 kts 354°
2026-04-19 18:16 26.21617 127.64451 1280 ft 160 kts 356°
2026-04-19 18:16 26.22743 127.64411 2004 ft 168 kts 356°
2026-04-19 18:16 26.24023 127.64365 2332 ft 200 kts 356°
2026-04-19 18:16 26.25287 127.64288 2507 ft 223 kts 347°
2026-04-19 18:17 26.26757 127.63582 2761 ft 242 kts 328°
2026-04-19 18:17 26.28259 127.62611 3285 ft 256 kts 328°
2026-04-19 18:17 26.29806 127.61617 4152 ft 258 kts 327°
2026-04-19 18:17 26.31373 127.60615 5016 ft 261 kts 327°
2026-04-19 18:18 26.32951 127.59613 5902 ft 262 kts 328°
2026-04-19 18:18 26.34547 127.58602 6723 ft 265 kts 328°
2026-04-19 18:18 26.36158 127.57584 7528 ft 268 kts 328°
2026-04-19 18:18 26.37789 127.56554 8333 ft 271 kts 328°
2026-04-19 18:19 26.39402 127.55507 9141 ft 272 kts 322°
2026-04-19 18:19 26.40669 127.53927 9937 ft 272 kts 297°
2026-04-19 18:19 26.41215 127.51927 10488 ft 283 kts 276°
2026-04-19 18:19 26.40943 127.49662 10648 ft 312 kts 250°
2026-04-19 18:20 26.39720 127.47551 10824 ft 339 kts 233°
2026-04-19 18:20 26.38109 127.45527 11064 ft 357 kts 231°
2026-04-19 18:20 26.36426 127.43438 11504 ft 366 kts 232°
2026-04-19 18:20 26.34731 127.41300 12105 ft 369 kts 232°
2026-04-19 18:21 26.32978 127.39187 12776 ft 373 kts 230°
2026-04-19 18:21 26.31124 127.37147 13411 ft 376 kts 228°
2026-04-19 18:21 26.29226 127.35117 14019 ft 380 kts 228°
2026-04-19 18:21 26.27307 127.33066 14520 ft 384 kts 229°
2026-04-19 18:22 26.25376 127.30986 15069 ft 388 kts 229°
2026-04-19 18:22 26.23433 127.28879 15635 ft 392 kts 229°
2026-04-19 18:22 26.21477 127.26747 16206 ft 395 kts 230°
2026-04-19 18:22 26.19529 127.24621 16757 ft 398 kts 230°
2026-04-19 18:23 26.17537 127.22445 17280 ft 402 kts 230°
2026-04-19 18:23 26.15529 127.20253 17801 ft 406 kts 230°
2026-04-19 18:23 26.13497 127.18037 18303 ft 410 kts 230°
2026-04-19 18:23 26.11630 127.15660 18748 ft 406 kts 240°
2026-04-19 18:24 26.10105 127.13022 19256 ft 405 kts 243°
2026-04-19 18:24 26.08639 127.10339 19764 ft 407 kts 244°
2026-04-19 18:24 26.07172 127.07636 20226 ft 409 kts 244°
2026-04-19 18:24 26.05684 127.04923 20697 ft 412 kts 243°
2026-04-19 18:25 26.04173 127.02205 21171 ft 414 kts 243°
2026-04-19 18:25 26.02662 126.99514 21629 ft 416 kts 243°
2026-04-19 18:25 26.01117 126.96779 22097 ft 418 kts 243°
2026-04-19 18:25 25.99562 126.94037 22537 ft 420 kts 243°
2026-04-19 18:26 25.97999 126.91284 22986 ft 422 kts 243°
2026-04-19 18:26 25.96427 126.88519 23414 ft 424 kts 243°
2026-04-19 18:26 25.94847 126.85738 23797 ft 426 kts 243°
2026-04-19 18:26 25.93265 126.82957 24178 ft 427 kts 243°
2026-04-19 18:27 25.91678 126.80166 24544 ft 427 kts 243°
2026-04-19 18:27 25.90087 126.77371 24907 ft 428 kts 243°
2026-04-19 18:27 25.88503 126.74591 25408 ft 425 kts 243°
2026-04-19 18:27 25.86926 126.71821 25881 ft 423 kts 243°
2026-04-19 18:28 25.85418 126.69029 25936 ft 420 kts 245°
2026-04-19 18:28 25.83976 126.66213 25964 ft 419 kts 246°
2026-04-19 18:28 25.82551 126.63381 25967 ft 420 kts 246°
2026-04-19 18:28 25.81125 126.60542 25971 ft 421 kts 246°
2026-04-19 18:29 25.79690 126.57704 25969 ft 422 kts 245°
2026-04-19 18:29 25.78263 126.54899 25964 ft 422 kts 245°
2026-04-19 18:29 25.76813 126.52063 25963 ft 422 kts 245°
2026-04-19 18:29 25.75359 126.49230 25964 ft 422 kts 245°
2026-04-19 18:30 25.73904 126.46400 25963 ft 422 kts 245°
2026-04-19 18:30 25.72441 126.43560 25964 ft 422 kts 245°
2026-04-19 18:30 25.70982 126.40730 25966 ft 422 kts 245°
2026-04-19 18:30 25.69525 126.37904 25965 ft 422 kts 245°
2026-04-19 18:31 25.68088 126.35119 25965 ft 422 kts 245°
2026-04-19 18:31 25.66630 126.32295 25965 ft 422 kts 245°
2026-04-19 18:31 25.65173 126.29473 25968 ft 422 kts 245°
2026-04-19 18:31 25.63717 126.26655 25968 ft 422 kts 245°
2026-04-19 18:32 25.62258 126.23834 25968 ft 422 kts 245°
2026-04-19 18:32 25.60799 126.21013 25965 ft 422 kts 245°
2026-04-19 18:32 25.59341 126.18197 25964 ft 422 kts 245°
2026-04-19 18:32 25.57881 126.15379 25968 ft 422 kts 245°
2026-04-19 18:33 25.56418 126.12556 25969 ft 422 kts 245°
2026-04-19 18:33 25.54955 126.09734 25967 ft 422 kts 245°
2026-04-19 18:33 25.53490 126.06912 25966 ft 422 kts 245°
2026-04-19 18:33 25.52042 126.04123 25966 ft 423 kts 245°
2026-04-19 18:34 25.50577 126.01302 25966 ft 423 kts 245°
2026-04-19 18:34 25.49109 125.98478 25967 ft 423 kts 245°
2026-04-19 18:34 25.47638 125.95650 25969 ft 424 kts 245°
2026-04-19 18:34 25.46168 125.92823 25970 ft 424 kts 245°
2026-04-19 18:35 25.44695 125.89996 25968 ft 424 kts 245°
2026-04-19 18:35 25.43219 125.87165 25968 ft 425 kts 244°
2026-04-19 18:35 25.41744 125.84336 25968 ft 425 kts 244°
2026-04-19 18:35 25.40266 125.81503 25969 ft 425 kts 244°
2026-04-19 18:36 25.38787 125.78670 25968 ft 425 kts 244°
2026-04-19 18:36 25.37308 125.75837 25969 ft 426 kts 244°
2026-04-19 18:36 25.35826 125.73001 25970 ft 426 kts 244°
2026-04-19 18:36 25.34340 125.70169 25969 ft 426 kts 244°
2026-04-19 18:37 25.32840 125.67347 25970 ft 427 kts 244°
2026-04-19 18:37 25.31329 125.64521 25971 ft 427 kts 244°
2026-04-19 18:37 25.29817 125.61699 25968 ft 427 kts 244°
2026-04-19 18:37 25.28303 125.58873 25969 ft 427 kts 244°
2026-04-19 18:38 25.26791 125.56048 25970 ft 427 kts 244°
2026-04-19 18:38 25.25279 125.53222 25971 ft 427 kts 244°
2026-04-19 18:38 25.23766 125.50394 25966 ft 428 kts 244°
2026-04-19 18:38 25.22254 125.47568 25965 ft 428 kts 244°
2026-04-19 18:39 25.20739 125.44738 25968 ft 428 kts 244°
2026-04-19 18:39 25.19222 125.41908 25967 ft 428 kts 244°
2026-04-19 18:39 25.17705 125.39078 25966 ft 428 kts 244°
2026-04-19 18:39 25.16186 125.36245 25967 ft 428 kts 244°
2026-04-19 18:40 25.14687 125.33454 25963 ft 425 kts 244°
2026-04-19 18:40 25.13196 125.30680 25958 ft 416 kts 244°
2026-04-19 18:40 25.11728 125.27950 25962 ft 412 kts 244°
2026-04-19 18:40 25.10255 125.25229 25971 ft 414 kts 242°
2026-04-19 18:41 25.08601 125.22596 25905 ft 419 kts 238°
2026-04-19 18:41 25.06842 125.20026 25443 ft 418 kts 237°
2026-04-19 18:41 25.05074 125.17497 24890 ft 414 kts 237°
2026-04-19 18:41 25.03331 125.14986 24339 ft 411 kts 238°
2026-04-19 18:42 25.01612 125.12476 23757 ft 409 kts 238°
2026-04-19 18:42 24.99907 125.09970 23102 ft 407 kts 238°
2026-04-19 18:42 24.98170 125.07496 22401 ft 408 kts 236°
2026-04-19 18:42 24.96402 125.05115 21826 ft 406 kts 235°
2026-04-19 18:43 24.94600 125.02737 21251 ft 403 kts 234°
2026-04-19 18:43 24.92802 125.00371 20675 ft 401 kts 234°
2026-04-19 18:43 24.91018 124.98016 20108 ft 400 kts 234°
2026-04-19 18:43 24.89242 124.95661 19544 ft 399 kts 234°
2026-04-19 18:44 24.87474 124.93308 18985 ft 399 kts 234°
2026-04-19 18:44 24.85708 124.90953 18417 ft 399 kts 234°
2026-04-19 18:44 24.83941 124.88594 17791 ft 399 kts 233°
2026-04-19 18:44 24.82177 124.86240 17207 ft 397 kts 233°
2026-04-19 18:45 24.80422 124.83900 16653 ft 395 kts 233°
2026-04-19 18:45 24.78676 124.81572 16099 ft 393 kts 233°
2026-04-19 18:45 24.76942 124.79263 15544 ft 391 kts 233°
2026-04-19 18:45 24.75218 124.76965 14990 ft 388 kts 233°
2026-04-19 18:46 24.73501 124.74680 14452 ft 386 kts 233°
2026-04-19 18:46 24.71797 124.72413 13916 ft 384 kts 233°
2026-04-19 18:46 24.70098 124.70153 13332 ft 381 kts 233°
2026-04-19 18:46 24.68436 124.67943 12793 ft 377 kts 233°
2026-04-19 18:47 24.66772 124.65733 12270 ft 373 kts 233°
2026-04-19 18:47 24.65127 124.63547 11766 ft 369 kts 233°
2026-04-19 18:47 24.63493 124.61378 11260 ft 364 kts 233°
2026-04-19 18:47 24.62349 124.59860 10906 ft 354 kts 233°
2026-04-19 18:48 24.60819 124.57834 10752 ft 337 kts 233°
2026-04-19 18:48 24.59350 124.55887 10599 ft 326 kts 233°
2026-04-19 18:48 24.57928 124.54001 10456 ft 316 kts 233°
2026-04-19 18:48 24.56548 124.52170 10322 ft 306 kts 233°
2026-04-19 18:49 24.55211 124.50396 10194 ft 297 kts 233°
2026-04-19 18:49 24.53912 124.48676 10068 ft 288 kts 233°
2026-04-19 18:49 24.52645 124.47000 9856 ft 283 kts 233°
2026-04-19 18:49 24.51408 124.45364 9543 ft 274 kts 233°
2026-04-19 18:50 24.50075 124.43905 9248 ft 269 kts 222°
2026-04-19 18:50 24.48595 124.42695 8972 ft 263 kts 219°
2026-04-19 18:50 24.47091 124.41543 8713 ft 265 kts 218°
2026-04-19 18:50 24.45578 124.40387 8443 ft 265 kts 218°
2026-04-19 18:51 24.44068 124.39225 8163 ft 264 kts 218°
2026-04-19 18:51 24.42589 124.38077 7890 ft 263 kts 219°
2026-04-19 18:51 24.41101 124.36915 7618 ft 262 kts 219°
2026-04-19 18:52 24.38142 124.34591 7067 ft 261 kts 219°
2026-04-19 18:52 24.36671 124.33431 6800 ft 260 kts 219°
2026-04-19 18:52 24.35206 124.32275 6519 ft 259 kts 219°
2026-04-19 18:52 24.33742 124.31120 6229 ft 259 kts 219°
2026-04-19 18:53 24.32282 124.29967 5937 ft 259 kts 218°
2026-04-19 18:53 24.30825 124.28816 5653 ft 258 kts 218°
2026-04-19 18:53 24.29366 124.27664 5371 ft 257 kts 218°
2026-04-19 18:53 24.27914 124.26518 5100 ft 257 kts 218°
2026-04-19 18:54 24.26465 124.25374 4822 ft 257 kts 218°
2026-04-19 18:54 24.25016 124.24231 4538 ft 256 kts 217°
2026-04-19 18:54 24.23574 124.23094 4279 ft 255 kts 217°
2026-04-19 18:54 24.22158 124.21975 4161 ft 246 kts 220°
2026-04-19 18:55 24.21127 124.20563 4015 ft 231 kts 251°
2026-04-19 18:55 24.20908 124.18943 3960 ft 210 kts 277°
2026-04-19 18:55 24.21247 124.17452 3819 ft 195 kts 296°
2026-04-19 18:55 24.21946 124.16197 3469 ft 193 kts 306°
2026-04-19 18:56 24.22724 124.15002 3243 ft 186 kts 307°
2026-04-19 18:56 24.23583 124.13970 3220 ft 187 kts 329°
2026-04-19 18:56 24.24832 124.13523 3253 ft 194 kts 358°
2026-04-19 18:56 24.26153 124.13877 3064 ft 200 kts 30°
2026-04-19 18:57 24.27298 124.14709 2857 ft 195 kts 34°
2026-04-19 18:57 24.28396 124.15575 2645 ft 194 kts 36°
2026-04-19 18:57 24.29479 124.16437 2389 ft 190 kts 36°
2026-04-19 18:57 24.30531 124.17274 2140 ft 181 kts 36°
2026-04-19 18:58 24.31517 124.18057 1919 ft 170 kts 36°
2026-04-19 18:58 24.32453 124.18801 1706 ft 162 kts 37°
2026-04-19 18:58 24.33320 124.19490 1500 ft 148 kts 37°
2026-04-19 18:58 24.34130 124.20131 1309 ft 140 kts 36°
2026-04-19 18:59 24.34662 124.20558 1181 ft 144 kts 37°
2026-04-19 18:59 24.35471 124.21205 970 ft 146 kts 36°
2026-04-19 18:59 24.36543 124.22048 770 ft 142 kts 35°
2026-04-19 18:59 24.37350 124.22697 563 ft 144 kts 35°
2026-04-19 19:00 24.38143 124.23327 403 ft 139 kts 33°
2026-04-19 19:00 24.38925 124.23938 172 ft 138 kts 34°
2026-04-19 19:00 24.39431 124.24334 109 ft 122 kts 35°
2026-04-19 19:00 24.40033 124.24817 107 ft 40 kts 36°
2026-04-19 19:01 24.40170 124.24927 111 ft 36 kts 36°
2026-04-19 19:01 24.40333 124.25061 115 ft 18 kts 45°
2026-04-19 19:01 24.40325 124.25155 115 ft 13 kts 124°
2026-04-19 19:01 24.40256 124.25211 114 ft 13 kts 179°
2026-04-19 19:02 24.40182 124.25162 115 ft 12 kts 216°
2026-04-19 19:02 24.40113 124.25107 114 ft 12 kts 216°
2026-04-19 19:02 24.40038 124.25052 111 ft 14 kts 212°
2026-04-19 19:02 24.39961 124.24986 109 ft 14 kts 217°
2026-04-19 19:03 24.39881 124.24924 108 ft 14 kts 215°
2026-04-19 19:03 24.39797 124.24859 104 ft 16 kts 215°
2026-04-19 19:03 24.39707 124.24787 103 ft 16 kts 216°
2026-04-19 19:03 24.39619 124.24717 106 ft 15 kts 216°
2026-04-19 19:04 24.39535 124.24651 110 ft 15 kts 216°
2026-04-19 19:04 24.39454 124.24587 115 ft 14 kts 215°
2026-04-19 19:04 24.39376 124.24527 116 ft 13 kts 216°
2026-04-19 19:04 24.39319 124.24482 113 ft 8 kts 203°
2026-04-19 19:05 24.39271 124.24503 114 ft 8 kts 131°
2026-04-19 19:05 24.39237 124.24556 113 ft 9 kts 124°
2026-04-19 19:05 24.39217 124.24586 115 ft 0 kts 126°